Weather History for Hobart, OK

Change the Weather History Date:

Thursday, February 7, 2013

  Actual Average Record
Temperature  
Mean Temperature 48 °F -  
Max Temperature 60 °F 49 °F 78 °F (2009)
Min Temperature 34 °F 28 °F 12 °F (2014)
Degree Days  
Heating Degree Days 17    
Moisture  
Dew Point 46 °F    
Average Humidity 79    
Maximum Humidity 100    
Minimum Humidity 38    
Precipitation  
Precipitation 0.00 in - - ()
Sea Level Pressure  
Sea Level Pressure 29.91 in    
Wind  
Wind Speed 20 mph (NNE)    
Max Wind Speed 36 mph    
Max Gust Speed 46 mph    
Visibility 8 miles    
Events      
Averages and records for this station are not official NWS values.
T = Trace of Precipitation, MM = Missing Value Source: NWS Daily Summary

Daily Weather History Graph

Daily Weather History Graph

Search for Another Location

Airport:

Trip Planner

Search our weather history database for the weather conditions in past years. The results will help you decide how hot, cold, wet, or windy it might be!

Date:

Astronomy

Feb. 07, 2013 Rise Set
Actual Time 7:29 AM CST 6:11 PM CST
Civil Twilight 7:03 AM CST 6:37 PM CST
Nautical Twilight 6:33 AM CST 7:07 PM CST
Astronomical Twilight 6:03 AM CST 7:37 PM CST
Moon 5:07 AM CST (2/7) 3:40 PM CST (2/7)
Length of Visible Light 11h 34m
Length of Day
10h 41m
Waning Crescent, 9% of the Moon is Illuminated
Feb 7
Waning Crescent
Feb 10
New
Feb 17
First Quarter
Feb 25
Full
Mar 4
Last Quarter

Hourly Weather History & Observations

Time (CST) Temp. Windchill Dew Point Humidity Pressure Visibility Wind Dir Wind Speed Gust Speed Precip Events Conditions
12:28 AM 57.2 °F - 55.4 °F 94% 29.80 in 7.0 mi SSE 26.5 mph 38.0 mph N/A   Mostly Cloudy
12:53 AM 57.9 °F - 55.9 °F 93% 29.77 in 7.0 mi South 27.6 mph 35.7 mph N/A   Overcast
1:53 AM 59.0 °F - 55.9 °F 90% 29.75 in 7.0 mi South 24.2 mph - N/A   Overcast
2:53 AM 57.9 °F - 55.9 °F 93% 29.75 in 7.0 mi South 20.7 mph 28.8 mph N/A   Overcast
3:53 AM 57.9 °F - 55.9 °F 93% 29.73 in 7.0 mi South 20.7 mph - N/A   Mostly Cloudy
4:41 AM 57.2 °F - 55.4 °F 94% 29.74 in 9.0 mi South 23.0 mph - N/A   Scattered Clouds
4:53 AM 57.0 °F - 55.0 °F 93% 29.72 in 9.0 mi South 23.0 mph - N/A   Scattered Clouds
5:53 AM 55.9 °F - 54.0 °F 93% 29.72 in 10.0 mi South 21.9 mph - N/A   Clear
6:53 AM 54.0 °F - 52.0 °F 93% 29.74 in 9.0 mi South 15.0 mph - N/A   Clear
7:43 AM 50.0 °F - 48.2 °F 94% 29.81 in 3.0 mi NNW 8.1 mph - N/A   Partly Cloudy
7:53 AM 51.1 °F - 50.0 °F 96% 29.80 in 2.5 mi North 8.1 mph - N/A   Mostly Cloudy
8:03 AM 51.8 °F - 51.8 °F 100% 29.82 in 4.0 mi North 8.1 mph - N/A   Mostly Cloudy
8:23 AM 53.6 °F - 51.8 °F 94% 29.83 in 4.0 mi NE 4.6 mph - N/A   Mostly Cloudy
8:38 AM 53.6 °F - 51.8 °F 94% 29.83 in 4.0 mi ENE 5.8 mph - N/A   Partly Cloudy
8:53 AM 55.9 °F - 54.0 °F 93% 29.82 in 6.0 mi NE 5.8 mph - N/A   Clear
9:21 AM 57.2 °F - 53.6 °F 88% 29.86 in 8.0 mi NNE 4.6 mph - N/A   Mostly Cloudy
9:48 AM 59.0 °F - 55.4 °F 88% 29.87 in 9.0 mi North 9.2 mph - N/A   Overcast
9:53 AM 59.0 °F - 55.0 °F 87% 29.85 in 9.0 mi North 12.7 mph - N/A   Overcast
10:53 AM 57.9 °F - 51.1 °F 78% 29.88 in 10.0 mi North 29.9 mph 42.6 mph N/A   Overcast
11:04 AM 59.0 °F - 51.8 °F 77% 29.91 in 10.0 mi NNE 31.1 mph 39.1 mph N/A   Overcast
11:23 AM 59.0 °F - 48.2 °F 67% 29.91 in 10.0 mi NNE 35.7 mph 46.0 mph N/A   Overcast
11:53 AM 60.1 °F - 46.9 °F 62% 29.91 in 10.0 mi NNE 35.7 mph 44.9 mph N/A   Mostly Cloudy
12:53 PM 59.0 °F - 45.0 °F 60% 29.93 in 10.0 mi NNE 29.9 mph 38.0 mph N/A   Overcast
1:53 PM 57.9 °F - 44.1 °F 60% 29.96 in 10.0 mi North 26.5 mph 35.7 mph N/A   Overcast
2:53 PM 54.0 °F - 42.1 °F 64% 30.00 in 10.0 mi North 24.2 mph 32.2 mph N/A   Overcast
3:53 PM 55.9 °F - 41.0 °F 57% 30.01 in 10.0 mi NNE 24.2 mph 27.6 mph N/A   Scattered Clouds
4:53 PM 55.9 °F - 33.1 °F 42% 30.04 in 10.0 mi NNE 19.6 mph - N/A   Clear
5:53 PM 53.1 °F - 28.0 °F 38% 30.07 in 10.0 mi NNE 13.8 mph - N/A   Clear
6:53 PM 46.0 °F 41.4 °F 28.9 °F 51% 30.10 in 10.0 mi NNE 9.2 mph - N/A   Clear
7:53 PM 41.0 °F 34.7 °F 28.9 °F 62% 30.14 in 10.0 mi North 10.4 mph - N/A   Clear
8:53 PM 43.0 °F 37.2 °F 30.0 °F 60% 30.16 in 10.0 mi NNE 10.4 mph - N/A   Clear
9:53 PM 39.0 °F 34.0 °F 30.0 °F 70% 30.19 in 10.0 mi North 6.9 mph - N/A   Clear
10:53 PM 36.0 °F 29.0 °F 28.9 °F 76% 30.21 in 10.0 mi North 9.2 mph - N/A   Clear
11:53 PM 34.0 °F 26.6 °F 28.0 °F 79% 30.23 in 10.0 mi North 9.2 mph - N/A   Clear